SCP
-0 -0 0 0 0 0 0 0 0 0 0 0 0 0 0 0 0 0 0 0 0 0 0 0 0 0 0 0 0 0 0 0 0 0 0 0 0 0 0 0 0 0 0
-0 -0 0 0 0 0 0 0 0 0 0 0 0 0 0 0 0 0 0 0 0 0 0 0 0 0 0 0 0 0 0 0 0 0 0 0 0 0 0 0 0 0 0
-0 -0 -0 0 0 0 0 0 0 0 0 0 0 0 0 0 0 0 0 0 0 0 0 0 0 0 0 0 0 0 0 0 0 0 0 0 0 0 0 0 0 0 0
0 -0 -0 0 0 0 0 0 0 0 0 0 0 0 0 0 0 0 0 0 0 0 0 0 0 0 0 0 0 0 0 0 0 0 0 0 0 0 0 0 0 0 0
0 0 0 0 0 0 0 0 0 0 0 0 0 0 0 0 0 0 0 0 0 0 0 0 0 0 0 0 0 0 0 0 0 0 0 0 0 0 1 0 0 0 0
0 0 0 0 0 0 0 0 0 0 0 0 0 0 0 0 0 0 0 0 0 0 0 0 0 0 0 0 0 0 0 0 0 0 0 0 0 0 0 1 0 0 0
0 0 0 0 0 0 0 0 0 0 0 0 0 0 0 0 0 0 0 0 0 0 0 0 0 0 0 0 0 0 0 0 0 0 0 0 0 0 0 0 0 0 0
0 0 0 0 0 0 0 0 0 0 0 0 0 0 0 0 0 0 0 0 0 0 0 0 0 0 0 0 0 0 0 0 0 0 0 0 0 0 0 0 0 0 0
0 0 0 0 0 0 0 0 0 0 0 0 0 0 0 0 0 0 0 0 0 0 0 0 0 0 0 0 0 0 0 0 0 0 0 0 0 1 1 0 0 0 0
0 0 0 0 0 0 0 0 0 0 0 0 0 0 0 0 0 0 0 0 0 0 0 0 0 0 0 0 0 0 0 0 0 0 0 0 0 0 0 1 1 0 0
0 0 0 0 0 0 0 0 0 0 0 0 0 0 0 0 0 0 0 0 0 0 0 0 0 0 0 0 0 0 0 0 0 0 0 0 0 0 0 0 0 0 1
0 0 0 0 0 0 0 0 0 0 0 0 0 0 0 0 0 0 0 0 0 0 0 0 0 0 0 0 0 0 0 0 0 0 0 0 0 0 0 0 0 0 0
0 0 0 0 0 0 0 0 0 0 0 0 0 0 0 0 0 0 0 0 0 0 0 0 0 0 0 0 0 0 0 0 0 0 0 0 0 0 0 0 0 0 0
0 0 0 0 0 0 0 0 0 0 0 0 -0 0 0 0 0 0 0 0 0 0 0 0 0 0 0 0 0 0 0 0 0 0 0 0 0 0 0 0 0 0 0
0 0 0 0 0 0 0 0 0 0 0 0 0 0 0 0 0 0 0 0 0 0 0 -0 0 0 0 0 0 0 0 0 0 0 0 0 0 0 0 0 0 0 1
0 0 0 0 0 0 0 0 0 0 0 0 0 0 0 0 0 0 0 0 0 0 0 0 0 0 0 0 0 0 0 0 0 0 0 0 0 0 0 0 0 0 1
0 0 0 0 0 0 0 0 0 0 0 0 0 0 0 0 0 0 0 0 0 0 0 0 0 0 0 0 0 0 0 0 0 0 0 0 0 0 0 0 0 0 0
0 0 0 0 0 0 0 0 0 0 0 0 0 0 0 0 0 0 0 0 0 0 0 0 0 0 0 0 0 0 0 0 0 0 0 0 0 0 0 0 0 0 0
0 0 0 0 0 0 0 0 0 0 0 0 0 0 0 0 0 0 0 0 0 0 0 0 0 0 0 0 0 0 0 0 0 0 0 0 0 0 0 0 0 0 0
0 0 0 0 0 0 0 0 0 0 0 0 0 0 0 0 0 0 0 0 0 0 0 0 0 0 0 0 0 0 0 0 0 0 0 0 0 0 0 0 0 0 0
0 0 0 0 0 0 0 0 0 0 0 0 0 0 0 0 0 0 0 0 0 0 0 0 0 0 0 0 0 0 0 0 0 0 0 0 0 0 0 0 0 0 0
0 0 0 0 0 0 0 0 0 0 0 0 0 0 0 0 0 0 0 0 0 0 0 0 0 0 0 0 0 0 0 0 0 0 0 0 0 0 0 0 0 0 0
0 0 0 0 0 0 0 0 0 0 0 0 0 0 0 0 0 0 0 0 0 0 0 0 0 0 0 0 0 0 0 0 0 0 0 0 0 0 0 0 0 0 0
0 0 0 0 0 0 0 0 0 0 0 0 0 0 0 0 0 0 0 0 0 0 0 0 0 0 0 0 0 0 0 0 0 0 0 0 0 0 0 0 0 0 0
0 0 0 0 0 0 0 0 0 0 0 0 0 0 0 0 0 0 0 0 0 0 0 0 0 0 0 0 0 0 0 0 0 0 0 0 0 0 0 0 0 0 0
0 0 0 0 0 0 0 0 0 0 0 0 0 0 0 0 0 0 0 0 0 0 0 0 0 0 0 0 0 0 0 0 0 0 0 0 0 0 0 0 0 0 0
Wind_Speed_500mb
16 16 14 12 13 13 13 13 14 14 15 16 16 18 18 19 19 20 21 20 19 19 19 19 18 17 16 17 18 16 10 4 3 3 4 7 6 6 6 10 13 13 14
20 21 18 15 12 14 14 14 14 13 13 14 15 17 17 18 19 21 21 22 22 21 20 20 20 22 24 22 22 21 20 16 9 5 7 7 10 11 10 11 12 12 11
10 19 26 21 18 17 14 14 14 15 15 14 15 15 16 18 21 22 23 23 23 21 22 25 23 19 21 25 25 25 24 24 21 16 12 9 11 14 23 21 16 15 14
14 16 22 25 21 17 14 15 16 15 16 16 16 16 17 19 21 23 26 27 29 30 30 22 22 24 23 23 27 27 27 27 28 25 22 15 10 13 21 31 27 22 18
12 13 17 20 20 18 13 14 14 17 18 18 16 16 19 20 20 23 27 28 29 30 29 28 20 20 20 21 22 24 26 27 29 30 30 26 21 18 25 24 29 29 21
24 19 14 15 17 15 12 16 22 23 18 14 13 13 14 15 19 26 33 34 34 28 22 21 21 20 19 18 17 18 20 21 24 29 31 32 29 24 20 22 27 32 24
22 17 12 14 14 13 11 18 23 23 13 8 6 7 10 15 22 28 34 43 43 38 34 26 20 19 19 20 18 16 15 16 17 19 24 29 30 28 19 17 31 35 31
16 18 12 15 16 14 14 18 23 24 16 9 4 4 6 7 21 28 31 37 35 37 34 33 31 28 19 14 14 15 13 13 15 19 19 21 23 25 17 20 31 37 30
13 16 16 15 11 10 15 19 22 22 21 16 8 7 12 9 17 24 22 29 29 29 31 25 26 24 23 19 15 10 3 12 11 9 9 11 15 20 24 25 29 34 36
7 12 11 5 8 8 7 18 17 23 28 29 17 7 7 6 7 11 17 16 21 22 24 23 23 23 19 13 11 8 4 8 12 13 10 11 14 20 25 30 35 37 37
7 4 8 9 14 13 9 14 14 21 27 31 20 5 11 6 3 3 4 12 16 22 27 22 19 26 24 10 8 8 11 10 10 8 10 12 20 24 29 33 42 42 42
12 12 5 11 15 11 11 10 11 18 29 26 23 6 9 7 3 10 10 13 22 22 16 12 17 25 19 9 13 16 17 19 20 16 19 18 28 35 38 33 36 40 42
11 10 8 20 17 19 17 9 11 20 24 22 25 17 14 12 2 8 14 21 21 9 14 20 25 20 9 7 7 13 20 17 17 21 20 24 25 29 25 23 33 35 42
6 9 10 11 26 17 13 10 9 12 14 21 26 24 19 17 4 11 20 22 7 16 21 22 26 22 11 6 4 5 9 16 15 20 17 17 23 26 35 29 25 28 32
6 6 9 9 15 22 19 10 5 1 8 16 20 28 23 19 9 14 18 7 18 19 24 32 35 22 14 11 8 7 11 15 8 9 15 19 20 25 22 25 30 30 28
8 6 7 7 9 18 17 9 11 5 6 11 20 31 26 19 8 15 17 12 19 23 29 32 35 23 16 17 15 13 14 12 7 9 16 10 16 24 34 38 36 35 28
11 7 6 4 10 16 6 11 15 4 3 10 19 32 27 19 13 19 19 16 22 25 31 35 24 18 20 22 20 13 10 7 2 5 10 18 24 24 34 29 22 19 23
10 8 5 0 12 20 14 16 10 4 4 11 16 31 30 23 17 18 18 21 22 26 32 40 28 18 16 19 15 9 2 8 5 10 15 18 22 30 37 33 21 22 25
6 10 6 5 19 20 15 13 10 4 6 9 19 28 33 30 24 22 23 21 21 30 37 38 28 24 24 23 13 13 13 6 7 13 17 22 25 32 35 28 25 23 24
3 8 9 6 13 14 9 14 16 8 5 8 15 23 30 29 30 29 26 26 26 33 40 35 28 27 24 23 16 19 14 8 7 13 18 21 27 31 36 30 27 24 23
11 1 9 7 5 11 17 17 14 12 4 12 13 17 28 23 30 35 36 29 31 36 40 39 32 30 26 22 14 16 11 2 17 12 20 21 22 26 27 29 25 22 21
14 6 3 5 1 7 12 20 18 21 12 10 10 18 20 21 29 34 41 35 30 30 31 44 38 37 35 29 26 15 10 6 9 12 30 22 25 29 27 26 24 22 18
23 10 6 4 2 5 9 18 19 19 17 11 8 17 17 20 23 30 38 39 28 25 29 37 41 37 33 27 24 22 10 11 38 15 32 28 27 28 23 21 22 21 20
26 17 13 8 4 4 8 13 19 23 20 18 13 12 15 17 16 24 35 37 23 24 23 27 36 39 33 30 21 17 14 16 15 24 39 32 25 21 20 17 17 21 21
31 22 16 15 5 3 4 12 17 22 20 17 8 12 11 9 12 22 32 35 21 19 23 24 24 30 36 30 26 22 18 21 20 26 37 47 29 21 15 16 15 20 19
35 31 25 20 12 3 3 6 9 11 15 19 15 9 13 8 12 20 29 32 22 16 26 25 23 22 27 30 29 24 29 26 27 28 36 41 40 30 17 16 16 17 15
Wind_Direction_500mb
96 78 50 28 11 5 3 0 359 2 3 1 1 1 2 4 5 3 360 356 350 341 331 319 307 294 283 284 293 297 296 299 333 311 270 270 258 236 219 200 221 247 263
91 67 34 12 6 350 344 343 343 345 346 346 347 348 352 354 353 352 353 351 352 353 348 338 326 315 301 285 278 280 284 282 273 265 267 257 256 262 238 237 247 253 255
51 22 11 15 4 353 337 335 337 335 335 336 336 340 342 346 349 345 341 338 336 340 337 327 319 312 308 308 293 273 266 273 276 271 258 252 271 255 243 249 244 254 259
10 16 39 40 28 11 351 344 341 334 329 323 325 330 337 342 344 341 337 335 332 328 326 336 324 313 303 296 292 292 279 265 266 273 269 269 245 248 271 254 246 247 254
53 53 46 37 35 30 25 16 2 346 331 325 330 338 342 346 353 352 345 337 328 321 317 319 326 322 323 311 301 295 290 280 266 263 270 272 266 272 249 259 251 243 246
82 71 55 45 31 30 39 16 1 350 329 324 334 341 351 4 3 6 7 360 355 347 323 317 325 326 330 335 331 319 311 296 283 269 266 270 272 274 290 253 243 238 251
84 68 45 36 30 25 44 12 360 352 330 326 356 22 16 1 358 11 15 12 15 25 33 26 7 347 327 319 315 320 328 335 319 301 285 278 269 269 273 260 244 238 258
90 66 68 32 31 35 26 22 12 11 9 9 19 14 333 356 0 10 20 11 13 26 36 35 27 23 17 338 326 306 302 322 331 316 304 283 272 262 259 254 247 257 245
58 45 63 64 38 21 21 33 30 26 20 4 336 354 7 26 9 4 18 11 12 18 18 22 18 4 6 15 6 341 328 333 344 353 331 319 262 234 231 246 246 252 258
57 348 5 87 109 52 52 51 36 5 6 2 359 266 314 13 27 34 33 357 3 7 1 355 360 352 351 332 354 4 285 325 307 305 314 324 312 284 265 260 258 257 265
351 350 322 52 146 109 78 65 35 12 357 355 8 249 257 294 251 311 37 341 342 337 328 336 338 339 358 3 329 324 339 336 3 343 347 306 291 295 285 278 270 267 260
349 351 21 129 115 155 120 79 46 2 343 356 10 355 356 352 222 291 284 301 328 332 340 347 330 322 346 20 30 9 343 303 303 312 304 297 287 292 287 281 272 260 253
332 338 63 179 138 128 120 92 2 340 345 3 13 11 18 12 197 290 335 348 347 0 350 357 352 350 351 345 5 12 360 19 15 340 297 298 301 304 309 296 275 277 264
319 10 38 150 183 174 199 230 284 330 6 355 0 10 22 29 90 351 8 9 20 353 354 347 334 327 314 304 325 332 333 327 342 2 2 300 298 303 303 310 307 286 278
351 24 57 87 187 200 226 228 184 27 341 345 354 360 9 19 359 3 19 1 343 351 345 340 338 329 299 273 300 303 310 311 338 2 346 341 331 321 325 326 323 312 289
47 20 52 51 128 178 187 157 174 182 319 330 0 357 355 13 348 355 6 343 328 349 349 349 344 337 286 276 277 294 312 310 308 326 321 338 346 329 329 318 311 313 300
54 20 359 52 119 167 140 110 185 238 318 347 358 350 353 11 337 340 0 349 335 346 351 350 349 323 284 269 284 283 355 22 20 284 319 325 326 336 338 323 309 307 303
67 57 2 217 146 136 132 95 85 90 354 4 353 356 5 10 359 349 356 345 349 346 352 356 352 336 317 314 307 220 22 125 41 337 332 331 333 338 336 338 325 316 310
67 39 34 141 161 146 161 180 166 163 276 326 342 354 9 13 18 22 7 5 6 356 360 6 360 344 341 351 6 149 126 124 3 0 348 337 334 335 341 341 340 323 317
194 37 27 98 163 167 163 178 173 194 299 290 323 347 4 15 24 23 17 10 1 7 11 19 15 14 8 10 91 133 131 83 2 356 12 351 343 333 330 332 333 337 327
226 87 23 35 180 191 187 191 189 187 269 260 304 346 356 12 17 18 14 11 10 11 22 26 28 25 24 36 111 129 147 71 26 26 16 352 354 348 332 329 324 335 333
238 227 1 356 219 194 186 183 172 192 226 257 311 334 348 1 3 9 9 2 9 15 28 30 34 35 37 31 33 37 6 263 344 33 12 356 344 342 334 315 327 332 339
225 226 252 311 283 228 184 181 186 186 207 240 284 321 328 327 345 357 2 358 7 18 26 31 30 32 36 42 41 34 16 354 339 315 356 358 341 336 339 325 322 327 325
224 227 245 272 294 251 200 202 199 208 206 225 256 269 294 301 322 348 355 354 2 22 32 32 33 36 30 32 43 26 5 350 350 325 335 357 5 344 324 330 329 322 314
223 233 239 263 280 297 246 211 216 232 236 240 252 252 280 319 304 341 351 350 355 11 16 18 21 25 23 21 13 13 353 324 331 335 331 342 355 1 350 341 322 326 321
221 231 241 258 264 298 278 235 226 234 238 227 231 247 296 292 288 333 344 348 352 3 4 3 6 18 16 14 17 14 6 358 338 329 327 331 339 354 350 352 334 330 332
Wind_Speed_850mb
16 16 14 12 13 13 13 13 14 14 15 16 16 18 18 19 19 20 21 20 19 19 19 19 18 17 16 17 18 16 10 4 3 3 4 7 6 6 6 10 13 13 14
20 21 18 15 12 14 14 14 14 13 13 14 15 17 17 18 19 21 21 22 22 21 20 20 20 22 24 22 22 21 20 16 9 5 7 7 10 11 10 11 12 12 11
10 19 26 21 18 17 14 14 14 15 15 14 15 15 16 18 21 22 23 23 23 21 22 25 23 19 21 25 25 25 24 24 21 16 12 9 11 14 23 21 16 15 14
14 16 22 25 21 17 14 15 16 15 16 16 16 16 17 19 21 23 26 27 29 30 30 22 22 24 23 23 27 27 27 27 28 25 22 15 10 13 21 31 27 22 18
12 13 17 20 20 18 13 14 14 17 18 18 16 16 19 20 20 23 27 28 29 30 29 28 20 20 20 21 22 24 26 27 29 30 30 26 21 18 25 24 29 29 21
24 19 14 15 17 15 12 16 22 23 18 14 13 13 14 15 19 26 33 34 34 28 22 21 21 20 19 18 17 18 20 21 24 29 31 32 29 24 20 22 27 32 24
22 17 12 14 14 13 11 18 23 23 13 8 6 7 10 15 22 28 34 43 43 38 34 26 20 19 19 20 18 16 15 16 17 19 24 29 30 28 19 17 31 35 31
16 18 12 15 16 14 14 18 23 24 16 9 4 4 6 7 21 28 31 37 35 37 34 33 31 28 19 14 14 15 13 13 15 19 19 21 23 25 17 20 31 37 30
13 16 16 15 11 10 15 19 22 22 21 16 8 7 12 9 17 24 22 29 29 29 31 25 26 24 23 19 15 10 3 12 11 9 9 11 15 20 24 25 29 34 36
7 12 11 5 8 8 7 18 17 23 28 29 17 7 7 6 7 11 17 16 21 22 24 23 23 23 19 13 11 8 4 8 12 13 10 11 14 20 25 30 35 37 37
7 4 8 9 14 13 9 14 14 21 27 31 20 5 11 6 3 3 4 12 16 22 27 22 19 26 24 10 8 8 11 10 10 8 10 12 20 24 29 33 42 42 42
12 12 5 11 15 11 11 10 11 18 29 26 23 6 9 7 3 10 10 13 22 22 16 12 17 25 19 9 13 16 17 19 20 16 19 18 28 35 38 33 36 40 42
11 10 8 20 17 19 17 9 11 20 24 22 25 17 14 12 2 8 14 21 21 9 14 20 25 20 9 7 7 13 20 17 17 21 20 24 25 29 25 23 33 35 42
6 9 10 11 26 17 13 10 9 12 14 21 26 24 19 17 4 11 20 22 7 16 21 22 26 22 11 6 4 5 9 16 15 20 17 17 23 26 35 29 25 28 32
6 6 9 9 15 22 19 10 5 1 8 16 20 28 23 19 9 14 18 7 18 19 24 32 35 22 14 11 8 7 11 15 8 9 15 19 20 25 22 25 30 30 28
8 6 7 7 9 18 17 9 11 5 6 11 20 31 26 19 8 15 17 12 19 23 29 32 35 23 16 17 15 13 14 12 7 9 16 10 16 24 34 38 36 35 28
11 7 6 4 10 16 6 11 15 4 3 10 19 32 27 19 13 19 19 16 22 25 31 35 24 18 20 22 20 13 10 7 2 5 10 18 24 24 34 29 22 19 23
10 8 5 0 12 20 14 16 10 4 4 11 16 31 30 23 17 18 18 21 22 26 32 40 28 18 16 19 15 9 2 8 5 10 15 18 22 30 37 33 21 22 25
6 10 6 5 19 20 15 13 10 4 6 9 19 28 33 30 24 22 23 21 21 30 37 38 28 24 24 23 13 13 13 6 7 13 17 22 25 32 35 28 25 23 24
3 8 9 6 13 14 9 14 16 8 5 8 15 23 30 29 30 29 26 26 26 33 40 35 28 27 24 23 16 19 14 8 7 13 18 21 27 31 36 30 27 24 23
11 1 9 7 5 11 17 17 14 12 4 12 13 17 28 23 30 35 36 29 31 36 40 39 32 30 26 22 14 16 11 2 17 12 20 21 22 26 27 29 25 22 21
14 6 3 5 1 7 12 20 18 21 12 10 10 18 20 21 29 34 41 35 30 30 31 44 38 37 35 29 26 15 10 6 9 12 30 22 25 29 27 26 24 22 18
23 10 6 4 2 5 9 18 19 19 17 11 8 17 17 20 23 30 38 39 28 25 29 37 41 37 33 27 24 22 10 11 38 15 32 28 27 28 23 21 22 21 20
26 17 13 8 4 4 8 13 19 23 20 18 13 12 15 17 16 24 35 37 23 24 23 27 36 39 33 30 21 17 14 16 15 24 39 32 25 21 20 17 17 21 21
31 22 16 15 5 3 4 12 17 22 20 17 8 12 11 9 12 22 32 35 21 19 23 24 24 30 36 30 26 22 18 21 20 26 37 47 29 21 15 16 15 20 19
35 31 25 20 12 3 3 6 9 11 15 19 15 9 13 8 12 20 29 32 22 16 26 25 23 22 27 30 29 24 29 26 27 28 36 41 40 30 17 16 16 17 15
Wind_Direction_850mb
96 78 50 28 11 5 3 0 359 2 3 1 1 1 2 4 5 3 360 356 350 341 331 319 307 294 283 284 293 297 296 299 333 311 270 270 258 236 219 200 221 247 263
91 67 34 12 6 350 344 343 343 345 346 346 347 348 352 354 353 352 353 351 352 353 348 338 326 315 301 285 278 280 284 282 273 265 267 257 256 262 238 237 247 253 255
51 22 11 15 4 353 337 335 337 335 335 336 336 340 342 346 349 345 341 338 336 340 337 327 319 312 308 308 293 273 266 273 276 271 258 252 271 255 243 249 244 254 259
10 16 39 40 28 11 351 344 341 334 329 323 325 330 337 342 344 341 337 335 332 328 326 336 324 313 303 296 292 292 279 265 266 273 269 269 245 248 271 254 246 247 254
53 53 46 37 35 30 25 16 2 346 331 325 330 338 342 346 353 352 345 337 328 321 317 319 326 322 323 311 301 295 290 280 266 263 270 272 266 272 249 259 251 243 246
82 71 55 45 31 30 39 16 1 350 329 324 334 341 351 4 3 6 7 360 355 347 323 317 325 326 330 335 331 319 311 296 283 269 266 270 272 274 290 253 243 238 251
84 68 45 36 30 25 44 12 360 352 330 326 356 22 16 1 358 11 15 12 15 25 33 26 7 347 327 319 315 320 328 335 319 301 285 278 269 269 273 260 244 238 258
90 66 68 32 31 35 26 22 12 11 9 9 19 14 333 356 0 10 20 11 13 26 36 35 27 23 17 338 326 306 302 322 331 316 304 283 272 262 259 254 247 257 245
58 45 63 64 38 21 21 33 30 26 20 4 336 354 7 26 9 4 18 11 12 18 18 22 18 4 6 15 6 341 328 333 344 353 331 319 262 234 231 246 246 252 258
57 348 5 87 109 52 52 51 36 5 6 2 359 266 314 13 27 34 33 357 3 7 1 355 360 352 351 332 354 4 285 325 307 305 314 324 312 284 265 260 258 257 265
351 350 322 52 146 109 78 65 35 12 357 355 8 249 257 294 251 311 37 341 342 337 328 336 338 339 358 3 329 324 339 336 3 343 347 306 291 295 285 278 270 267 260
349 351 21 129 115 155 120 79 46 2 343 356 10 355 356 352 222 291 284 301 328 332 340 347 330 322 346 20 30 9 343 303 303 312 304 297 287 292 287 281 272 260 253
332 338 63 179 138 128 120 92 2 340 345 3 13 11 18 12 197 290 335 348 347 0 350 357 352 350 351 345 5 12 360 19 15 340 297 298 301 304 309 296 275 277 264
319 10 38 150 183 174 199 230 284 330 6 355 0 10 22 29 90 351 8 9 20 353 354 347 334 327 314 304 325 332 333 327 342 2 2 300 298 303 303 310 307 286 278
351 24 57 87 187 200 226 228 184 27 341 345 354 360 9 19 359 3 19 1 343 351 345 340 338 329 299 273 300 303 310 311 338 2 346 341 331 321 325 326 323 312 289
47 20 52 51 128 178 187 157 174 182 319 330 0 357 355 13 348 355 6 343 328 349 349 349 344 337 286 276 277 294 312 310 308 326 321 338 346 329 329 318 311 313 300
54 20 359 52 119 167 140 110 185 238 318 347 358 350 353 11 337 340 0 349 335 346 351 350 349 323 284 269 284 283 355 22 20 284 319 325 326 336 338 323 309 307 303
67 57 2 217 146 136 132 95 85 90 354 4 353 356 5 10 359 349 356 345 349 346 352 356 352 336 317 314 307 220 22 125 41 337 332 331 333 338 336 338 325 316 310
67 39 34 141 161 146 161 180 166 163 276 326 342 354 9 13 18 22 7 5 6 356 360 6 360 344 341 351 6 149 126 124 3 0 348 337 334 335 341 341 340 323 317
194 37 27 98 163 167 163 178 173 194 299 290 323 347 4 15 24 23 17 10 1 7 11 19 15 14 8 10 91 133 131 83 2 356 12 351 343 333 330 332 333 337 327
226 87 23 35 180 191 187 191 189 187 269 260 304 346 356 12 17 18 14 11 10 11 22 26 28 25 24 36 111 129 147 71 26 26 16 352 354 348 332 329 324 335 333
238 227 1 356 219 194 186 183 172 192 226 257 311 334 348 1 3 9 9 2 9 15 28 30 34 35 37 31 33 37 6 263 344 33 12 356 344 342 334 315 327 332 339
225 226 252 311 283 228 184 181 186 186 207 240 284 321 328 327 345 357 2 358 7 18 26 31 30 32 36 42 41 34 16 354 339 315 356 358 341 336 339 325 322 327 325
224 227 245 272 294 251 200 202 199 208 206 225 256 269 294 301 322 348 355 354 2 22 32 32 33 36 30 32 43 26 5 350 350 325 335 357 5 344 324 330 329 322 314
223 233 239 263 280 297 246 211 216 232 236 240 252 252 280 319 304 341 351 350 355 11 16 18 21 25 23 21 13 13 353 324 331 335 331 342 355 1 350 341 322 326 321
221 231 241 258 264 298 278 235 226 234 238 227 231 247 296 292 288 333 344 348 352 3 4 3 6 18 16 14 17 14 6 358 338 329 327 331 339 354 350 352 334 330 332